Weather History for KAZC - February, 2014

Change the Weather History Date:

Sunday, February 23, 2014

  Actual Average (KCDC) Record (KCDC)
Temperature  
Mean Temperature 44 °F 35 °F  
Max Temperature 65 °F 48 °F 66 °F (1981)
Min Temperature 23 °F 22 °F 3 °F (1955)
Degree Days  
Heating Degree Days 21 30  
Month to date heating degree days 741  
Since 1 July heating degree days 4416  
Cooling Degree Days 0 0  
Month to date cooling degree days 0  
Year to date cooling degree days 0  
Moisture  
Dew Point 19 °F    
Average Humidity 47    
Maximum Humidity 81    
Minimum Humidity 14    
Precipitation  
Precipitation 0.00 in 0.04 in 0.55 in (1987)
Month to date precipitation 0.79  
Year to date precipitation 1.65  
Sea Level Pressure  
Sea Level Pressure 30.09 in    
Wind  
Wind Speed 4 mph (SSE)    
Max Wind Speed 12 mph    
Max Gust Speed 22 mph    
Visibility 10 miles    
Events      
T = Trace of Precipitation, MM = Missing Value Source: NWS Daily Summary

Daily Weather History Graph

Daily Weather History Graph

Search for Another Location

Airport or City:

Trip Planner

Search our weather history database for the weather conditions in past years. The results will help you decide how hot, cold, wet, or windy it might be!

Date:

Astronomy

Feb. 23, 2014 Rise Set
Actual Time 7:10 AM MST 6:20 PM MST
Civil Twilight 6:44 AM MST 6:46 PM MST
Nautical Twilight 6:14 AM MST 7:16 PM MST
Astronomical Twilight 5:44 AM MST 7:47 PM MST
Moon 2:08 AM MST (2/23) 12:30 PM MST (2/23)
Length of Visible Light 12h 02m
Length of Day
11h 09m
Last Quarter, 38% of the Moon is Illuminated
Feb 23
Last Quarter
Mar 1
New
Mar 8
First Quarter
Mar 16
Full
Mar 23
Last Quarter

Hourly Weather History & Observations

Time (MST) Temp. Windchill Dew Point Humidity Pressure Visibility Wind Dir Wind Speed Gust Speed Precip Events Conditions
12:15 AM 28.9 °F - 18.9 °F 66% 30.05 in 10.0 mi Calm Calm - N/A   Clear
12:35 AM 29.3 °F 25.6 °F 19.2 °F 66% 30.05 in 10.0 mi SE 3.5 mph - N/A   Clear
12:55 AM 28.6 °F 24.8 °F 19.0 °F 67% 30.05 in 10.0 mi SSE 3.5 mph - N/A   Clear
1:15 AM 28.2 °F 22.0 °F 18.9 °F 68% 30.05 in 10.0 mi SSE 5.8 mph - N/A   Clear
1:35 AM 26.8 °F 21.4 °F 18.7 °F 72% 30.05 in 10.0 mi ESE 4.6 mph - N/A   Clear
1:55 AM 27.3 °F 23.4 °F 19.6 °F 73% 30.06 in 10.0 mi SE 3.5 mph - N/A   Clear
2:15 AM 27.7 °F 21.3 °F 19.6 °F 72% 30.06 in 10.0 mi SE 5.8 mph - N/A   Clear
2:35 AM 27.0 °F 21.6 °F 19.8 °F 74% 30.07 in 10.0 mi ESE 4.6 mph - N/A   Clear
2:55 AM 26.8 °F 22.8 °F 19.8 °F 75% 30.07 in 10.0 mi SSE 3.5 mph - N/A   Clear
3:15 AM 27.5 °F 22.2 °F 19.6 °F 72% 30.07 in 10.0 mi SSE 4.6 mph - N/A   Clear
3:35 AM 27.0 °F 19.5 °F 18.5 °F 70% 30.07 in 10.0 mi SSE 6.9 mph - N/A   Clear
3:55 AM 27.0 °F 21.6 °F 19.0 °F 72% 30.07 in 10.0 mi SSE 4.6 mph - N/A   Clear
4:15 AM 27.1 °F 20.7 °F 19.2 °F 72% 30.07 in 10.0 mi SSE 5.8 mph - N/A   Clear
4:35 AM 25.9 °F 20.3 °F 19.2 °F 76% 30.07 in 10.0 mi SE 4.6 mph - N/A   Clear
4:55 AM 25.3 °F 19.7 °F 19.0 °F 77% 30.07 in 10.0 mi SSE 4.6 mph - N/A   Clear
5:15 AM 24.4 °F 18.6 °F 18.7 °F 79% 30.07 in 10.0 mi South 4.6 mph - N/A   Clear
5:35 AM 23.4 °F 16.2 °F 18.3 °F 81% 30.08 in 10.0 mi South 5.8 mph - N/A   Clear
5:55 AM 24.4 °F 17.5 °F 18.9 °F 79% 30.08 in 10.0 mi SE 5.8 mph - N/A   Clear
6:15 AM 24.6 °F 16.7 °F 19.0 °F 79% 30.09 in 10.0 mi SSE 6.9 mph - N/A   Clear
6:35 AM 26.4 °F 20.9 °F 20.1 °F 77% 30.09 in 10.0 mi ESE 4.6 mph - N/A   Clear
6:55 AM 27.3 °F 23.4 °F 20.5 °F 75% 30.10 in 10.0 mi SE 3.5 mph - N/A   Clear
7:15 AM 28.9 °F 25.2 °F 20.5 °F 71% 30.10 in 10.0 mi SE 3.5 mph - N/A   Clear
7:35 AM 25.7 °F 21.5 °F 19.4 °F 77% 30.10 in 10.0 mi SSE 3.5 mph - N/A   Clear
7:55 AM 25.3 °F 19.7 °F 19.8 °F 79% 30.11 in 10.0 mi SSE 4.6 mph - N/A   Clear
8:15 AM 28.4 °F 23.3 °F 21.2 °F 74% 30.12 in 10.0 mi SE 4.6 mph - N/A   Clear
8:35 AM 33.3 °F 30.2 °F 23.0 °F 66% 30.12 in 10.0 mi SSE 3.5 mph - N/A   Clear
8:55 AM 38.1 °F 34.6 °F 23.5 °F 56% 30.13 in 10.0 mi SSE 4.6 mph - N/A   Clear
9:15 AM 42.8 °F 41.1 °F 22.6 °F 45% 30.14 in 10.0 mi SE 3.5 mph - N/A   Clear
9:35 AM 46.2 °F 44.1 °F 22.1 °F 39% 30.14 in 10.0 mi SSE 4.6 mph - N/A   Clear
9:55 AM 49.1 °F - 21.4 °F 34% 30.14 in 10.0 mi Calm Calm - N/A   Clear
10:15 AM 51.1 °F - 21.0 °F 31% 30.14 in 10.0 mi SSE 4.6 mph - N/A   Clear
10:35 AM 54.3 °F - 19.8 °F 26% 30.14 in 10.0 mi SSE 6.9 mph - N/A   Clear
10:55 AM 55.6 °F - 19.4 °F 24% 30.15 in 10.0 mi SE 5.8 mph - N/A   Clear
11:15 AM 56.7 °F - 18.9 °F 23% 30.15 in 10.0 mi SSE 4.6 mph - N/A   Clear
11:35 AM 58.3 °F - 18.3 °F 21% 30.14 in 10.0 mi Calm Calm - N/A   Clear
11:55 AM 59.2 °F - 17.8 °F 20% 30.13 in 10.0 mi Calm Calm - N/A   Clear
12:15 PM 60.3 °F - 16.9 °F 19% 30.13 in 10.0 mi Calm Calm - N/A   Clear
12:35 PM 61.5 °F - 16.7 °F 18% 30.12 in 10.0 mi Calm Calm - N/A   Clear
12:55 PM 62.6 °F - 17.2 °F 17% 30.11 in 10.0 mi SW 4.6 mph - N/A   Clear
1:15 PM 62.4 °F - 17.6 °F 18% 30.11 in 10.0 mi SW 3.5 mph - N/A   Clear
1:35 PM 63.5 °F - 17.1 °F 17% 30.10 in 10.0 mi Calm Calm - N/A   Clear
1:55 PM 64.0 °F - 16.5 °F 16% 30.09 in 10.0 mi Calm Calm - N/A   Clear
2:15 PM 64.4 °F - 16.9 °F 16% 30.09 in 10.0 mi NW 5.8 mph - N/A   Clear
2:35 PM 64.6 °F - 16.0 °F 15% 30.08 in 10.0 mi WNW 11.5 mph - N/A   Clear
2:55 PM 64.8 °F - 15.1 °F 15% 30.08 in 10.0 mi NW 6.9 mph 16.1 mph N/A   Clear
3:15 PM 64.4 °F - 14.5 °F 14% 30.07 in 10.0 mi Calm Calm - N/A   Clear
3:35 PM 65.1 °F - 14.0 °F 14% 30.06 in 10.0 mi NW 6.9 mph - N/A   Clear
3:55 PM 64.8 °F - 13.8 °F 14% 30.06 in 10.0 mi NW 4.6 mph - N/A   Clear
4:15 PM 64.6 °F - 14.4 °F 14% 30.06 in 10.0 mi NW 5.8 mph - N/A   Clear
4:35 PM 64.4 °F - 15.3 °F 15% 30.06 in 10.0 mi WNW 9.2 mph 21.9 mph N/A   Clear
4:55 PM 63.9 °F - 15.8 °F 16% 30.05 in 10.0 mi WNW 6.9 mph - N/A   Clear
5:15 PM 63.5 °F - 16.9 °F 17% 30.06 in 10.0 mi NW 9.2 mph - N/A   Clear
5:35 PM 62.8 °F - 17.4 °F 17% 30.06 in 10.0 mi West 5.8 mph - N/A   Clear
5:55 PM 61.5 °F - 18.0 °F 19% 30.06 in 10.0 mi WNW 5.8 mph - N/A   Clear
6:15 PM 59.2 °F - 18.5 °F 21% 30.07 in 10.0 mi NW 5.8 mph - N/A   Clear
6:35 PM 55.0 °F - 19.4 °F 25% 30.07 in 10.0 mi WNW 4.6 mph - N/A   Clear
6:55 PM 51.6 °F - 19.8 °F 29% 30.08 in 10.0 mi NW 5.8 mph - N/A   Clear
7:15 PM 50.4 °F - 19.9 °F 30% 30.09 in 10.0 mi NNW 4.6 mph - N/A   Clear
7:35 PM 47.5 °F - 19.8 °F 33% 30.09 in 10.0 mi Calm Calm - N/A   Clear
7:55 PM 42.1 °F - 19.4 °F 40% 30.10 in 10.0 mi Calm Calm - N/A   Clear
8:15 PM 41.4 °F - 19.0 °F 41% 30.10 in 10.0 mi Calm Calm - N/A   Clear
8:35 PM 35.8 °F 30.9 °F 18.7 °F 50% 30.10 in 10.0 mi ESE 5.8 mph - N/A   Clear
8:55 PM 34.0 °F 28.8 °F 18.7 °F 54% 30.11 in 10.0 mi SE 5.8 mph - N/A   Clear
9:15 PM 32.7 °F 27.3 °F 18.5 °F 56% 30.11 in 10.0 mi ESE 5.8 mph - N/A   Clear
9:35 PM 32.2 °F 28.9 °F 18.5 °F 57% 30.11 in 10.0 mi SSE 3.5 mph - N/A   Clear
9:55 PM 32.0 °F 28.7 °F 18.7 °F 58% 30.11 in 10.0 mi ESE 3.5 mph - N/A   Clear
10:15 PM 32.7 °F 29.6 °F 19.2 °F 58% 30.12 in 10.0 mi South 3.5 mph - N/A   Clear
10:35 PM 31.8 °F 27.3 °F 18.5 °F 58% 30.12 in 10.0 mi SSE 4.6 mph - N/A   Clear
10:55 PM 31.6 °F 28.3 °F 18.5 °F 58% 30.12 in 10.0 mi SSE 3.5 mph - N/A   Clear
11:15 PM 31.8 °F 28.5 °F 18.9 °F 59% 30.12 in 10.0 mi SSE 3.5 mph - N/A   Clear
11:35 PM 31.6 °F 27.0 °F 19.2 °F 60% 30.12 in 10.0 mi SSE 4.6 mph - N/A   Clear
11:55 PM 30.4 °F 26.9 °F 19.0 °F 63% 30.12 in 10.0 mi SSE 3.5 mph - N/A   Clear